Torna al catalogo

COSMOS 1217 DEB

LostHEO
NORAD 26679·DEBRIS·🇷🇺 Russia

Lanciato Oct 24, 1980 da Plesetsk Cosmodrome

Loading…

Prossimi Passaggi (prossime 24 ore)

TLE

ObsoletoSource: Space-Track

Epoca: Dec 7, 2007, 18:24 UTC

1 26679U 80085F   07341.76669680 +.00000325 +00000-0 +10000-3 0  9998
2 26679 068.3768 212.7218 5963959 094.3217 331.6871 02.08156370076346

Traccia COSMOS 1217 DEB in tempo reale con AllMySat

Download on the App Store